Back to catalog

STARLINK-5364

AliveCommunicationsVLEO
NORAD 55491·PAYLOAD·🇺🇸 United States

Launched Feb 2, 2023 from Cape Canaveral Space Force Station

Loading…

Next Passes (next 24 hours)

TLE

FreshSource: CelesTrak SupGP

Epoch: Sep 14, 2026, 14:03 UTC

1 55491C 23015AU  26257.58590278  .00027031  00000+0  97934-3 0  2575
2 55491  43.0023 334.6249 0001313 274.9254 111.2964 15.27555345    17

Track STARLINK-5364 in real time with AllMySat

Download on the App Store